Station ATKA2 - 9461710 - Atka, AK Image indicating link to RSS feed of recent meteorological observations for station ATKA2


Conditions at ATKA2 as of
(8:54 am HAST)
1854 GMT on 04/17/2024:
     

Click on the graph icon in the table below to see a time series plot of the last five days of that observation.

5-day plot - Wind Direction Wind Direction (WDIR):NNW ( 330 deg true )
5-day plot - Wind Speed Wind Speed (WSPD): 25.1 kts
5-day plot - Wind Gust Wind Gust (GST): 34.0 kts
5-day plot - Atmospheric Pressure Atmospheric Pressure (PRES):30.26 in
5-day plot - Air Temperature Air Temperature (ATMP): 31.3 °F
5-day plot - Water Temperature Water Temperature (WTMP): 39.2 °F
5-day plot - Wind Chill Wind Chill (CHILL): 16.9 °F
5-day plot - Wind Speed at 10 Meters Wind Speed at 10 meters (WSPD10M): 25.3 kts
5-day plot - Wind Speed at 20 Meters Wind Speed at 20 meters (WSPD20M): 27.2 kts
5-day plot -  Wind Speed, Wind Gust and Atmospheric Pressure Combined plot of Wind Speed, Gust, and Air Pressure
NOS Water Level Observation Network Water Level
Previous observations
TIME
(HAST)
5-day plot - Wind Direction
WDIR
 
5-day plot - Wind Speed
WSPD
kts
5-day plot - Wind Gust
GST
kts
5-day plot - Wave Height
WVHT
ft
5-day plot - Dominant Wave Period
DPD
sec
5-day plot - Average Wave Period
APD
sec
5-day plot - Mean Wave Direction
MWD
 
5-day plot - Atmospheric Pressure
PRES
in
5-day plot - Pressure Tendency
PTDY
in
5-day plot - Air Temperature
ATMP
°F
5-day plot - Water Temperature
WTMP
°F
5-day plot - Dew Point
DEWP
°F
5-day plot - Salinity
SAL
psu
5-day plot - Visibility
VIS
nmi
5-day plot - Tide (above MLLW)
TIDE
ft
2024-04-17 08:48 amNNW 25.1 31.1----30.25- 31.5 39.2----
2024-04-17 08:42 am NW 19.0 24.1----30.25- 32.7 39.2----
2024-04-17 08:36 am NW 17.1 22.9----30.25- 32.7 39.2----
2024-04-17 08:30 amNNW 18.1 27.0----30.25- 32.5 39.2----
2024-04-17 08:24 am NW 18.1 27.0----30.25- 32.4 39.2----
2024-04-17 08:18 am NW 17.1 21.0----30.25- 32.0 39.2----
2024-04-17 08:12 amNNW 17.1 22.0----30.25- 31.6 39.2----
2024-04-17 08:06 amNNW 21.0 26.0----30.25- 31.3 39.2----
2024-04-17 08:00 am NW 22.0 28.0----30.25+0.02 31.5 39.2----
2024-04-17 07:54 am NW 22.0 32.1----30.25- 31.6 39.2----
2024-04-17 07:48 am NW 22.0 28.0----30.24- 31.8 39.2----
2024-04-17 07:42 am NW 21.0 26.0----30.24- 32.0 39.2----
2024-04-17 07:36 am NW 20.0 27.0----30.24- 32.0 39.2----
2024-04-17 07:30 amNNW 19.0 24.1----30.24- 31.8 39.2----
2024-04-17 07:24 am NW 19.0 22.9----30.24- 31.6 39.2----
2024-04-17 07:18 am NW 15.9 25.1----30.24- 31.5 39.2----
2024-04-17 07:12 am NW 17.1 24.1----30.24- 31.5 39.2----
2024-04-17 07:06 am NW 19.0 24.1----30.24- 31.1 39.2----
2024-04-17 07:00 am NW 26.0 34.0----30.24+0.01 30.9 39.2----
2024-04-17 06:54 amNNW 19.0 22.9----30.24- 30.4 39.2----
2024-04-17 06:48 amNNW 21.0 26.0----30.24- 30.9 39.2----
2024-04-17 06:42 am NW 20.0 25.1----30.23- 32.2 39.2----
2024-04-17 06:36 am NW 15.9 21.0----30.23- 31.3 39.2----
2024-04-17 06:30 am NW 14.0 22.9----30.24- 30.9 39.2----
2024-04-17 06:24 am NW 19.0 26.0----30.24- 29.5 39.2----
2024-04-17 06:18 amNNW 15.0 20.0----30.24- 29.8 39.2----
2024-04-17 06:12 am NW 19.0 22.0----30.24- 28.9 39.2----
2024-04-17 06:06 amNNW 20.0 28.9----30.24- 28.2 39.2----
2024-04-17 06:00 amNNW 25.1 31.1----30.24+0.01 30.6 39.2----
2024-04-17 05:54 am NW 19.0 25.1----30.23- 32.0 39.2----
2024-04-17 05:48 amNNW 19.0 22.9----30.23- 31.5 39.2----
2024-04-17 05:42 amNNW 18.1 22.9----30.23- 31.3 39.2----
2024-04-17 05:36 amNNW 13.0 22.0----30.23- 31.1 39.2----
2024-04-17 05:30 amNNW 21.0 27.0----30.23- 31.1 39.2----
2024-04-17 05:24 amNNW 21.0 28.9----30.23- 31.5 39.2----
2024-04-17 05:18 amNNW 22.0 26.0----30.23- 32.0 39.2----
2024-04-17 05:12 am NW 18.1 25.1----30.23- 32.0 39.2----
2024-04-17 05:06 am NW 21.0 26.0----30.23- 32.0 39.2----
2024-04-17 05:00 am NW 22.9 27.0----30.23+0.00 31.5 39.2----
2024-04-17 04:54 am NW 20.0 25.1----30.23- 30.9 39.2----
2024-04-17 04:48 amNNW 24.1 28.0----30.23- 30.7 39.2----
2024-04-17 04:42 am NW 18.1 22.9----30.23- 30.6 39.2----
2024-04-17 04:36 am NW 21.0 27.0----30.23- 29.1 39.2----
2024-04-17 04:30 amNNW 24.1 35.9----30.23- 28.4 39.2----
2024-04-17 04:24 am NW 22.0 26.0----30.22- 32.0 39.2----
2024-04-17 04:18 am NW 18.1 25.1----30.22- 32.2 39.2----
2024-04-17 04:12 am NW 22.9 28.0----30.22- 32.0 39.2----
2024-04-17 04:06 am NW 18.1 26.0----30.22- 31.8 39.2----
2024-04-17 04:00 am NW 22.0 26.0----30.22+0.00 32.0 39.2----
2024-04-17 03:54 amNNW 21.0 31.1----30.22- 32.0 39.2----
2024-04-17 03:48 amNNW 19.0 25.1----30.22- 32.4 39.2----
2024-04-17 03:42 am NW 20.0 29.9----30.22- 32.2 39.2----
2024-04-17 03:36 amNNW 22.0 28.0----30.22- 32.2 39.2----
2024-04-17 03:30 amNNW 20.0 28.0----30.22- 32.0 39.2----
2024-04-17 03:24 amNNW 21.0 28.9----30.22- 32.0 39.2----
2024-04-17 03:18 am NW 17.1 22.9----30.23- 31.8 39.2----
2024-04-17 03:12 amNNW 20.0 28.0----30.22- 31.8 39.2----
2024-04-17 03:06 am NW 21.0 31.1----30.22- 32.0 39.2----
2024-04-17 03:00 am NW 22.9 28.9----30.22+0.00 32.2 39.2----
2024-04-17 02:54 am NW 19.0 24.1----30.23- 31.8 39.2----
2024-04-17 02:48 am NW 19.0 22.0----30.23- 32.0 39.2----
2024-04-17 02:42 amNNW 19.0 26.0----30.23- 31.8 39.2----
2024-04-17 02:36 am NW 22.0 29.9----30.23- 31.8 39.2----
2024-04-17 02:24 amNNW 19.0 25.1----30.23- 31.1 39.2----
2024-04-17 02:18 amNNW 20.0 24.1----30.23- 31.1 39.2----
2024-04-17 02:12 am NW 18.1 22.0----30.23- 32.0 39.2----
2024-04-17 02:06 am NW 19.0 27.0----30.23- 31.6 39.2----
2024-04-17 02:00 amNNW 22.0 28.0----30.23+0.01 31.6 39.2----
2024-04-17 01:54 amNNW 21.0 26.0----30.23- 31.6 39.2----
2024-04-17 01:48 am NW 19.0 27.0----30.23- 31.6 39.2----
2024-04-17 01:42 amNNW 21.0 26.0----30.23- 31.5 39.2----
2024-04-17 01:36 amNNW 22.9 27.0----30.23- 31.6 39.2----
2024-04-17 01:30 amNNW 21.0 26.0----30.23- 31.1 39.2----
2024-04-17 01:24 amNNW 19.0 28.9----30.23- 31.3 39.2----
2024-04-17 01:18 am NW 20.0 28.9----30.23- 31.6 39.2----
2024-04-17 01:12 amNNW 22.9 27.0----30.23- 31.5 39.2----
2024-04-17 01:06 amNNW 20.0 28.0----30.23- 31.5 39.2----
2024-04-17 01:00 amNNW 25.1 31.1----30.23+0.02 31.5 39.2----
2024-04-17 12:54 amNNW 24.1 31.1----30.23- 31.5 39.2----
2024-04-17 12:48 amNNW 20.0 24.1----30.23- 31.5 39.2----
2024-04-17 12:42 am NW 21.0 28.9----30.23- 31.5 39.2----
2024-04-17 12:36 amNNW 22.0 27.0----30.23- 31.5 39.2----
2024-04-17 12:30 amNNW 21.0 31.1----30.23- 31.5 39.2----
2024-04-17 12:24 am NW 24.1 29.9----30.23- 31.6 39.2----
2024-04-17 12:18 amNNW 20.0 28.9----30.23- 31.5 39.2----
2024-04-17 12:12 amNNW 19.0 29.9----30.23- 31.6 39.2----
2024-04-17 12:06 am NW 27.0 33.0----30.22- 31.8 39.2----
2024-04-17 12:00 am NW 22.9 28.0----30.22+0.04 31.6 39.2----
2024-04-16 11:54 pmNNW 20.0 27.0----30.22- 31.6 39.2----
2024-04-16 11:48 pm NW 24.1 29.9----30.22- 31.6 39.2----
2024-04-16 11:42 pm NW 22.0 28.0----30.22- 31.6 39.2----
2024-04-16 11:36 pmNNW 21.0 28.0----30.22- 31.5 39.2----
2024-04-16 11:30 pmNNW 18.1 25.1----30.22- 31.3 39.2----
2024-04-16 11:24 pmNNW 19.0 26.0----30.22- 31.3 39.2----
2024-04-16 11:18 pmNNW 21.0 35.0----30.22- 31.3 39.2----
2024-04-16 11:12 pm NW 22.9 28.9----30.22- 31.6 39.2----
2024-04-16 11:06 pmNNW 21.0 25.1----30.22- 31.3 39.2----
2024-04-16 11:00 pmNNW 22.9 28.9----30.21+0.06 31.5 39.2----
2024-04-16 10:54 pmNNW 22.0 26.0----30.21- 31.5 39.2----
2024-04-16 10:48 pm NW 20.0 28.9----30.21- 31.6 39.2----
2024-04-16 10:42 pmNNW 20.0 28.9----30.21- 31.6 39.2----
2024-04-16 10:36 pm NW 22.0 28.0----30.20- 31.6 39.2----
2024-04-16 10:30 pmNNW 22.0 28.0----30.21- 31.8 39.2----
2024-04-16 10:24 pm NW 20.0 25.1----30.21- 31.6 39.2----
2024-04-16 10:18 pmNNW 19.0 27.0----30.21- 31.6 39.2----
2024-04-16 10:12 pmNNW 21.0 31.1----30.21- 31.6 39.2----
2024-04-16 10:06 pmNNW 22.0 27.0----30.20- 31.8 39.2----
2024-04-16 10:00 pmNNW 17.1 21.0----30.20+0.08 31.3 39.2----
2024-04-16 09:54 pmNNW 20.0 29.9----30.20- 31.5 39.2----
2024-04-16 09:48 pmNNW 19.0 22.9----30.20- 31.3 39.2----
2024-04-16 09:42 pmNNW 21.0 28.0----30.20- 31.3 39.2----
2024-04-16 09:36 pmNNW 17.1 28.9----30.20- 31.1 39.2----
2024-04-16 09:30 pm NW 24.1 29.9----30.19- 31.5 39.2----
2024-04-16 09:24 pmNNW 15.9 22.9----30.19- 31.5 39.2----
2024-04-16 09:18 pmNNW 20.0 26.0----30.19- 31.5 39.2----
2024-04-16 09:12 pmNNW 22.0 27.0----30.19- 31.6 39.2----
2024-04-16 09:06 pm NW 21.0 28.0----30.18- 31.6 39.2----
2024-04-16 09:00 pmNNW 21.0 32.1----30.18+0.08 31.5 39.2----
2024-04-16 08:54 pmNNW 27.0 33.0----30.17- 31.6 39.2----
2024-04-16 08:48 pmNNW 22.0 29.9----30.18- 31.5 39.2----
2024-04-16 08:42 pmNNW 25.1 32.1----30.17- 31.6 39.2----
2024-04-16 08:36 pmNNW 22.0 28.9----30.16- 32.0 39.2----
2024-04-16 08:30 pmNNW 18.1 26.0----30.16- 31.8 39.2----
2024-04-16 08:24 pmNNW 21.0 28.9----30.16- 31.6 39.2----
2024-04-16 08:18 pmNNW 19.0 25.1----30.16- 31.6 39.2----
2024-04-16 08:12 pmNNW 25.1 29.9----30.16- 31.8 39.2----
2024-04-16 08:06 pmNNW 25.1 28.0----30.15- 32.0 39.2----
2024-04-16 08:00 pm NW 22.0 33.0----30.15+0.09 32.0 39.2----
2024-04-16 07:54 pmNNW 24.1 28.0----30.15- 32.0 39.4----
2024-04-16 07:48 pm NW 25.1 29.9----30.14- 32.2 39.4----
2024-04-16 07:42 pmNNW 22.9 31.1----30.14- 32.4 39.4----
2024-04-16 07:36 pm NW 27.0 33.0----30.14- 32.4 39.4----
2024-04-16 07:30 pmNNW 26.0 34.0----30.14- 32.4 39.4----
2024-04-16 07:24 pm NW 20.0 31.1----30.13- 32.7 39.4----
2024-04-16 07:18 pmNNW 21.0 28.0----30.13- 32.7 39.4----
2024-04-16 07:12 pmNNW 22.0 26.0----30.13- 32.7 39.4----
2024-04-16 07:06 pmNNW 25.1 31.1----30.12- 32.7 39.4----
2024-04-16 07:00 pmNNW 22.9 31.1----30.12+0.07 32.7 39.4----
2024-04-16 06:54 pmNNW 20.0 27.0----30.11- 32.9 39.4----
2024-04-16 06:48 pm NW 22.9 28.9----30.11- 33.3 39.4----
2024-04-16 06:42 pm NW 25.1 31.1----30.11- 33.3 39.4----
2024-04-16 06:36 pm NW 26.0 32.1----30.11- 33.4 39.4----
2024-04-16 06:30 pm NW 24.1 28.9----30.11- 33.6 39.4----
2024-04-16 06:24 pm NW 21.0 32.1----30.11- 34.0 39.4----
2024-04-16 06:18 pm NW 26.0 34.0----30.11- 33.6 39.4----
2024-04-16 06:12 pmNNW 25.1 32.1----30.10- 33.8 39.4----
2024-04-16 06:06 pmNNW 26.0 38.1----30.10- 33.8 39.4----
2024-04-16 06:00 pmNNW 24.1 34.0----30.10+0.07 33.3 39.4----
2024-04-16 05:54 pmNNW 24.1 32.1----30.10- 33.3 39.4----
2024-04-16 05:48 pmNNW 24.1 31.1----30.09- 33.3 39.4----
2024-04-16 05:42 pmNNW 27.0 34.0----30.09- 33.4 39.4----
2024-04-16 05:36 pmNNW 28.9 35.9----30.09- 33.6 39.4----
2024-04-16 05:30 pmNNW 22.0 28.9----30.08- 33.8 39.4----
2024-04-16 05:24 pmNNW 22.9 33.0----30.08- 33.8 39.4----
2024-04-16 05:18 pmNNW 27.0 33.0----30.07- 34.0 39.4----
2024-04-16 05:12 pmNNW 28.9 35.9----30.07- 34.0 39.4----
2024-04-16 05:06 pm NW 24.1 32.1----30.07- 34.2 39.4----
2024-04-16 05:00 pmNNW 25.1 32.1----30.06+0.06 34.0 39.4----
2024-04-16 04:54 pmNNW 24.1 32.1----30.06- 34.2 39.4----
2024-04-16 04:48 pmNNW 26.0 34.0----30.06- 34.0 39.4----
2024-04-16 04:42 pmNNW 27.0 33.0----30.06- 34.0 39.4----
2024-04-16 04:36 pmNNW 28.0 32.1----30.06- 34.0 39.4----
2024-04-16 04:30 pm NW 25.1 34.0----30.06- 34.2 39.4----
2024-04-16 04:24 pmNNW 26.0 35.9----30.05- 34.2 39.6----
2024-04-16 04:18 pmNNW 27.0 31.1----30.05- 34.2 39.6----
2024-04-16 04:12 pmNNW 25.1 32.1----30.05- 34.7 39.6----
2024-04-16 04:06 pmNNW 25.1 32.1----30.05- 34.3 39.6----
2024-04-16 04:00 pmNNW 26.0 32.1----30.05+0.06 34.5 39.6----
2024-04-16 03:54 pmNNW 27.0 32.1----30.05- 34.9 39.6----
2024-04-16 03:48 pmNNW 25.1 32.1----30.04- 34.9 39.6----
2024-04-16 03:42 pmNNW 26.0 35.0----30.04- 34.7 39.6----
2024-04-16 03:36 pmNNW 26.0 29.9----30.04- 34.7 39.6----
2024-04-16 03:30 pmNNW 19.0 28.9----30.04- 34.3 39.6----
2024-04-16 03:24 pmNNW 21.0 31.1----30.04- 34.3 39.6----
2024-04-16 03:18 pmNNW 26.0 33.0----30.04- 34.3 39.6----
2024-04-16 03:12 pmNNW 28.0 34.0----30.03- 34.3 39.6----
2024-04-16 03:06 pmNNW 26.0 35.0----30.03- 34.3 39.6----
2024-04-16 03:00 pmNNW 25.1 29.9----30.03+0.06 34.7 39.6----
2024-04-16 02:54 pmNNW 22.9 28.0----30.03- 34.7 39.6----
2024-04-16 02:48 pmNNW 21.0 32.1----30.03- 34.5 39.6----
2024-04-16 02:42 pmNNW 25.1 33.0----30.03- 34.5 39.6----
2024-04-16 02:36 pmNNW 25.1 33.0----30.02- 34.0 39.6----
2024-04-16 02:30 pmNNW 22.9 27.0----30.01- 34.9 39.6----
2024-04-16 02:24 pmNNW 22.9 31.1----30.01- 35.8 39.6----
2024-04-16 02:18 pmNNW 22.0 28.0----30.01- 35.6 39.6----
2024-04-16 02:12 pmNNW 22.9 28.9----30.01- 35.6 39.6----
2024-04-16 02:06 pmNNW 22.9 29.9----30.00- 35.6 39.6----
2024-04-16 02:00 pmNNW 24.1 33.0----30.00+0.06 35.4 39.6----
2024-04-16 01:54 pmNNW 21.0 28.0----30.00- 36.5 39.7----
2024-04-16 01:48 pmNNW 24.1 31.1----29.99- 36.1 39.7----
2024-04-16 01:42 pmNNW 22.0 26.0----29.99- 36.9 39.7----
2024-04-16 01:36 pmNNW 24.1 28.9----29.99- 36.0 39.7----
2024-04-16 01:30 pmNNW 19.0 28.0----29.99- 36.0 39.6----
2024-04-16 01:24 pmNNW 18.1 28.9----29.99- 36.3 39.6----
2024-04-16 01:18 pmNNW 24.1 29.9----29.99- 36.3 39.6----
2024-04-16 01:12 pmNNW 21.0 25.1----29.99- 36.5 39.6----
2024-04-16 01:06 pm NW 18.1 24.1----29.99- 36.5 39.6----
2024-04-16 01:00 pm NW 20.0 28.0----29.98+0.07 36.3-----
2024-04-16 12:54 pmNNW 24.1 33.0----29.98- 36.3-----
2024-04-16 12:48 pmNNW 27.0 29.9----29.98- 35.8 39.6----
2024-04-16 12:42 pmNNW 24.1 28.9----29.97- 36.1 39.6----
2024-04-16 12:36 pm NW 20.0 26.0----29.97- 36.1 39.6----
2024-04-16 12:30 pm NW 19.0 26.0----29.97-- 39.6----
2024-04-16 12:24 pm NW 22.0 27.0----29.97-- 39.6----
2024-04-16 12:18 pmNNW 17.1 28.0----29.97-- 39.6----
2024-04-16 12:12 pm NW 19.0 22.9----29.97-- 39.6----
2024-04-16 12:06 pm NW 15.0 18.1----29.97-- 39.6----
2024-04-16 12:00 pm NW 14.0 19.0----29.97+0.07 34.9 39.6----
2024-04-16 11:54 amNNW 18.1 24.1----29.97- 34.7 39.6----
2024-04-16 11:48 amNNW 17.1 25.1----29.97- 34.9 39.6----
2024-04-16 11:42 amNNW 24.1 28.9----29.96- 34.9 39.6----
2024-04-16 11:36 am NW 22.9 31.1----29.96- 34.9 39.6----
2024-04-16 11:30 amNNW 24.1 29.9----29.96- 34.9 39.6----
2024-04-16 11:24 amNNW 27.0 34.0----29.95- 35.2 39.6----
2024-04-16 11:18 amNNW 25.1 32.1----29.95- 35.1 39.6----
2024-04-16 11:12 amNNW 25.1 29.9----29.95- 34.7 39.6----
2024-04-16 11:06 amNNW 28.0 35.0----29.94- 34.7 39.6----
2024-04-16 11:00 amNNW 21.0 27.0----29.94+0.05 35.8 39.6----
2024-04-16 10:54 am NW 20.0 25.1----29.93- 35.4 39.6----
2024-04-16 10:48 amNNW 21.0 24.1----29.94- 35.4 39.6----
2024-04-16 10:42 am NW 19.0 22.0----29.93- 37.0 39.6----
2024-04-16 10:36 am NW 15.0 19.0----29.93- 36.5 39.6----
2024-04-16 10:30 am NW 15.0 19.0----29.92- 37.4 39.6----
2024-04-16 10:24 am NW 15.0 18.1----29.92- 36.9 39.6----
2024-04-16 10:18 amNNW 15.9 20.0----29.92- 37.2 39.6----
2024-04-16 10:12 am NW 15.0 19.0----29.92- 37.4 39.6----
2024-04-16 10:06 am NW 17.1 19.0----29.92- 37.2 39.6----
2024-04-16 10:00 amNNW 13.0 18.1----29.92+0.04 37.2 39.6----
2024-04-16 09:54 am NW 15.9 19.0----29.92- 37.0 39.6----
2024-04-16 09:48 amNNW 14.0 19.0----29.92- 37.0 39.6----
2024-04-16 09:42 am NW 15.9 21.0----29.91- 36.9 39.6----
2024-04-16 09:36 am NW 15.9 18.1----29.91- 37.0 39.6----
2024-04-16 09:30 amNNW 14.0 19.0----29.91- 36.9 39.4----
2024-04-16 09:24 amNNW 17.1 20.0----29.91- 36.9 39.4----
2024-04-16 09:18 amNNW 17.1 22.9----29.91- 36.9 39.6----
2024-04-16 09:12 amNNW 15.9 21.0----29.91- 36.7 39.4----
2024-04-16 09:06 amNNW 15.9 19.0----29.91- 36.7 39.4----
2024-04-16 09:00 amNNW 15.0 19.0----29.90+0.03 36.5 39.4----
2024-04-16 08:54 amNNW 14.0 19.0----29.90- 36.9 39.4----